www.pogodaiklimat.ru

Погода и климат >> Архив погоды >> Россия >> Астраханская область >> Верхний Баскунчак


АРХИВ ПОГОДЫ в Верхнем Баскунчаке

Время (UTC), дата Ветер
(напр.,м/с)
 
Видим.   Явления Облачность Т
(С)
Тd
(С)
f
(%)
Тe
(С)
Тes
(С)
Комфортность P
(гПа)
Po
(гПа)
Тmin
(С)
Tmax
(С)
R
(мм)
R24
(мм)
S
(см)
18 16.08 ЮВ 2 20 км ясно +26.0 +8.0 32 +26 +26 жарко 1012.0 1008.0
21 16.08 ЮВ 3 20 км ясно +22.5 +10.1 45 +24 +24 комфорт 1012.5 1008.4
00 17.08 В 2 20 км ясно +20.6 +9.1 48 +23 +23 комфорт 1012.4 1008.2
03 17.08 В 3 20 км 6/0
[Ci sp]
+20.4 +7.4 43 +22 +22 комфорт 1011.8 1007.6 +19.0
06 17.08 ЮВ 4 20 км 6/0
[Ci sp]
+29.4 +8.6 27 +29 +34 жарко 1011.7 1007.7
09 17.08 ЮВ 5-11
{12}
10 км пыльный позёмок 4/0
[As trans Ci fib]
+35.0 +5.5 16 +32 +39 жарко 1010.7 1006.8
12 17.08 ЮВ 6
{15}
10 км пыльный позёмок 8/0
[As trans Ci fib]
+33.1 +6.0 18 +31 +33 жарко 1010.8 1006.8
15 17.08 ЮВ 5
{11}
20 км 9/0
[As trans]
+31.2 +5.0 19 +29 +29 жарко 1011.2 1007.2 +35.4
18 17.08 ЮВ 4 20 км 9/9 600 м
[Sc]
+28.4 +6.5 25 +27 +27 жарко 1011.9 1007.8
21 17.08 ЮВ 3 20 км 8/4 600 м
[Sc Ci sp]
+25.1 +8.6 35 +26 +26 жарко 1012.1 1008.0
00 18.08 В 1 20 км 6/0
[Ac trans Ci sp]
+21.3 +10.0 48 +23 +23 комфорт 1012.6 1008.4
03 18.08 штиль 0 20 км 9/9 600 м
[Cb calv]
+22.1 +10.6 48 +24 +24 комфорт 1012.3 1008.2 +21.2
06 18.08 ЮВ 3 20 км 8/6 600 м
[Sc Ci sp]
+26.1 +10.0 36 +27 +29 жарко 1012.9 1008.8
09 18.08 ЮВ 6-10
{13}
10 км пыльный позёмок 3/0
[Ci sp]
+34.5 +2.7 14 +32 +37 жарко 1012.4 1008.4
12 18.08 ЮВ 6-11
{13}
10 км пыльный позёмок ясно +36.0 +3.3 13 +33 +36 жарко 1012.1 1008.1
15 18.08 ЮВ 4
{12}
20 км ясно +33.6 +5.1 17 +31 +32 жарко 1012.8 1008.8 +36.1
18 18.08 ЮВ 2 20 км ясно +27.9 +5.9 25 +27 +27 жарко 1014.7 1010.6
21 18.08 ЮВ 2 20 км 3/0
[Ci fib]
+25.0 +6.3 30 +25 +25 комфорт 1014.7 1010.6
00 19.08 СВ 2 20 км ясно +22.6 +4.7 31 +23 +23 комфорт 1014.4 1010.3
03 19.08 ЮВ 1 20 км 6/0
[Ci fib]
+22.0 +6.1 36 +23 +23 комфорт 1015.4 1011.2 +21.2
06 19.08 ЮВ 4 20 км 6/0
[Ci sp]
+32.0 +5.8 19 +30 +35 жарко 1016.3 1012.3
09 19.08 ЮВ 5-10
{12}
10 км в посл. час снег 6/3 600 м
[Sc Ci sp]
+35.9 +2.0 12 +33 +37 жарко 1015.6 1011.7
12 19.08 ЮВ 5-10
{15}
20 км 8/4 600 м
[Sc Ci sp]
+37.5 +3.9 13 +35 +37 очень
жарко
1015.5 1011.6
15 19.08 ЮВ 4
{10}
20 км 6/0
[Ac trans Ci sp]
+36.3 +2.8 12 +33 +33 жарко 1015.9 1012.0 +38.5
18 19.08 ЮВ 4 20 км 3/0
[Ci sp]
+31.1 +6.1 21 +29 +29 жарко 1017.4 1013.3
21 19.08 ЮВ 4 20 км 6/0
[Ci sp]
+26.2 +7.4 30 +26 +26 жарко 1018.1 1014.0
00 20.08 ЮВ 3 20 км 3/0
[Ci sp]
+22.4 +8.0 40 +24 +24 комфорт 1018.3 1014.1
03 20.08 В 1 20 км 4/0
[Ci sp]
+21.4 +10.9 51 +23 +24 комфорт 1018.9 1014.7 +20.0
06 20.08 В 2 20 км 3/3 1000 м
[Cu hum]
+33.0 +5.8 18 +31 +37 жарко 1019.0 1015.0
09 20.08 Ю 4 20 км 3/3 1000 м
[Cu hum]
+38.0 +2.9 11 +35 +41 очень
жарко
1017.9 1013.9
12 20.08 Ю 3
{10}
20 км 6/0
[Ac trans Ci fib]
+38.1 +1.8 10 +35 +40 очень
жарко
1017.1 1013.2
15 20.08 Ю 2 20 км 6/0
[Ac trans Ci fib]
+36.8 +1.8 11 +33 +34 жарко 1016.8 1012.8 +38.8
18 20.08 Ю 3 20 км 3/0
[Ci sp]
+29.6 +5.8 22 +28 +28 жарко 1018.0 1013.9
21 20.08 Ю 2 20 км 4/0
[Ci sp]
+25.5 +7.1 31 +25 +25 комфорт 1018.0 1013.9
00 21.08 ЮЗ 1 20 км 4/0
[Ci sp]
+23.8 +5.8 31 +24 +24 комфорт 1017.6 1013.5
03 21.08 СЗ 2 20 км 3/0
[Ci fib]
+21.7 +6.7 38 +22 +23 комфорт 1018.1 1014.0 +20.8
06 21.08 З 2 20 км ясно +32.6 +4.1 17 +30 +39 жарко 1017.8 1013.8
09 21.08 С 2 20 км ясно +36.6 +2.9 12 +33 +47 жарко 1016.9 1012.9
12 21.08 З 2 20 км ясно +38.5 +2.4 11 +35 +43 очень
жарко
1015.3 1011.4
15 21.08 З 1 20 км ясно +36.3 +4.5 14 +33 +34 жарко 1014.5 1010.5 +39.1
18 21.08 С 2 20 км ясно +30.4 +9.7 28 +30 +30 жарко 1015.3 1011.3
21 21.08 С 1 20 км ясно +26.3 +10.4 37 +27 +27 жарко 1015.5 1011.4
00 22.08 СВ 4 20 км ясно +24.2 +11.4 45 +26 +26 жарко 1015.1 1011.0
03 22.08 СВ 4 20 км ясно +23.5 +11.6 47 +25 +25 комфорт 1015.5 1011.4 +22.8
06 22.08 СВ 5
{10}
20 км ясно +29.1 +11.1 33 +30 +34 жарко 1015.7 1011.7
09 22.08 СВ 6-11
{13}
10 км пыльный позёмок ясно +34.6 +10.1 22 +34 +39 очень
жарко
1015.2 1011.2
12 22.08 СВ 2
{14}
20 км ясно +36.9 +8.4 18 +35 +43 очень
жарко
1014.4 1010.6
15 22.08 СВ 4 20 км ясно +35.3 +7.0 17 +33 +33 жарко 1014.2 1010.2 +38.8
18 22.08 СВ 4 20 км ясно +29.9 +8.9 27 +29 +29 жарко 1015.5 1011.5
21 22.08 СВ 3 20 км ясно +26.6 +8.4 32 +27 +27 жарко 1016.0 1011.9
00 23.08 СВ 3 20 км ясно +24.0 +8.6 37 +25 +25 комфорт 1016.4 1012.3
03 23.08 СВ 2 20 км 4/0
[Ci sp]
+23.1 +9.5 42 +25 +25 комфорт 1017.1 1012.9 +22.9
06 23.08 СВ 3 20 км 3/0
[Ci fib]
+31.3 +9.7 26 +31 +37 жарко 1017.3 1013.2
09 23.08 СВ 2 20 км 3/0
[Ci fib]
+36.1 +6.9 17 +34 +47 очень
жарко
1016.6 1012.7
12 23.08 С 2 20 км 4/0
[Ci sp]
+37.2 +5.6 14 +34 +41 очень
жарко
1015.9 1012.0
15 23.08 СВ 3 20 км ясно +35.3 +5.7 16 +33 +33 жарко 1015.7 1011.7 +37.9

 

Местоположение метеостанции Верхний Баскунчак (Астраханская область, Россия): широта 48.22 долгота 46.73 высота над уровнем моря 35 м.

В архиве по умолчанию представлена погода в Верхнем Баскунчаке за последнюю неделю. Архивные данные за месяц целиком и за предыдущие месяцы, начиная с января 2011 года, Вы можете получить, выбрав интересующий диапазон дат из раскрывающегося списка и нажав кнопку "Ввод!".


*Определитесь, кто Вы:
робот инопланетянин человек

Внимание! Время в таблицах - всемирное. Для получения местного времени необходимо прибавить поправку, которая равна 4 ч.

Смотрите также архив погоды в соседних городах и на ближайших метеорологических станциях:

Погода в Черный Яр (Астраханская область, Россия) (48 км)
Погода в Урде (Западно-Казахстанская область, Казахстан) (80 км)
Погода в Харабали (Астраханская область, Россия) (99 км)
Погода в Эльтоне (Волгоградская область, Россия) (102 км)
Погода в Юсте (Калмыкия, Россия) (125 км)
Погода в Жанибеке (Западно-Казахстанская область, Казахстан) (131 км)
Погода в Жанаказане (Западно-Казахстанская область, Казахстан) (144 км)
Погода в Малых Дербетах (Калмыкия, Россия) (154 км)
Погода в Жанауштогане (Атырауская область, Казахстан) (158 км)
Погода в Досанге (Астраханская область, Россия) (170 км)

Пояснения к столбцам:

Ветер - указаны скорость ветра в м/с - средняя за 10 мин, порывы в срок и между сроками (в фигурных скобках) и направление, откуда дует ветер: С - северный, СВ - северо-восточный, В - восточный, ЮВ - юго-восточный, Ю - южный, ЮЗ - юго-западный, З - западный, СЗ - северо-западный.
Видимость - горизонтальная дальность видимости в метрах или километрах. При видимости от 1 до 10 км при отсутствии осадков обычно наблюдается дымка, при ухудшении видимости до 1 км и менее - туман. В сухую погоду видимость может ухудшаться дымом, пылью или мглою.
Явления - указаны атмосферные явления, наблюдавшиеся в срок или в последний час перед сроком; фигурными скобками обозначены явления, наблюдавшиеся между сроками (за 1-3 часа до срока); квадратными скобками обозначены град или гололедные отложения с указанием их диаметра в мм.
Облачность - указаны через наклонную черту общая и нижняя облачность в баллах и высота нижней границы облаков в метрах; квадратными скобками обозначены формы облаков: Ci - перистые, Cs - перисто-слоистые, Cc - перисто-кучевые, Ac - высококучевые, As - высокослоистые, Sc - слоисто-кучевые, Ns - слоисто-дождевые, Cu - кучевые, Cb - кучево-дождевые. Подробнее классификацию облаков см. в Атласе облаков (PDF).
T - Температура воздуха - температура, измеренная на высоте 2 м над землей.
Td - Температура точки росы - температура, при понижении до которой содержащийся в воздухе водяной пар достигнет насыщения.
f - Относительная влажность воздуха - влажноcть воздуха, измеренная на высоте 2 м над землей.
Te - Эффективная температура - температура, которую ощущает одетый по сезону человек в тени. Характеристика душности погоды. При расчете учитывается влияние влажности воздуха и скорости ветра на теплоощущения человека.
Tes - Эффективная температура на солнце - температура, которую ощущает человек, с поправкой на солнечный нагрев. Характеристика знойности погоды. Зависит от высоты солнца над горизонтом, облачности и скорости ветра. Ночью, в пасмурную погоду, а также при ветре 12 м/с и более поправка равна нулю.
P - Атмосферное давление - приведенное к уровню моря атмосферное давление.
Po - Атмосферное давление - измеренное на уровне метеостанции атмосферное давление.
Tmin - Минимальная температура - минимум температуры воздуха на высоте 2 м над землей.
Tmax - Максимальная температура - максимум температуры воздуха на высоте 2 м над землей.
R - Количество осадков - Количество выпавших осадков за период времени, мм. При наведении курсора мыши на число - период времени, за который выпало указанное количество осадков.
R24 - Количество осадков - Количество выпавших осадков за 24 часа, мм.
S - Снежный покров - Высота снежного покрова, см. При наведении курсора мыши на число - состояние снежного покрова и степень покрытия местности в баллах.